STARLINK-32459, 61715

Orbit data source: Space-Track

STARLINK-32459, 61715 is a payload satellite owned by SpaceX/Seattle (US) in LEO that was launched on Wed, 30 Oct 2024 UTC via an FALCON 9 launch vehicle from the Air Force Eastern Test Range (AFETR). Payloads include a variety of satellites, spacecraft, and rockets equipped with specific instruments for various scientific and technological missions. These include communications satellites like Starlink; space stations such as the ISS; scientific satellites like the Hubble; Earth observation satellites from companies like Planet Labs, Umbra, and HawkEye 360; GPS; miniature CubeSats for education and research; and military/defense satellites.

Loading next visibility...
STARLINK-32459 details
Identifier
61715, 2024-196J
Orbit
LEO
Last TLE update7 hours ago
Origin
Flag of USSpaceX/Seattle (US)
ManufacturerSpaceX/Seattle
MissionOperational spacecraft
Bus & MotorSTARLINK V2M, Unknown motor
Mass730 kg wet, ~700 kg dry
Launch date (UTC)
2024-10-30 (2 months ago)
Launch vehicle
FALCON 9
Launch site
Air Force Eastern Test Range (AFETR)
Object type
Payload
Rocket body
Debris
Shape & HBRUnknown
Radar Cross SectionLarge (>1 m²)

Expand to show TLE details & history

TLE from 7 hours ago
0 STARLINK-32459
1 61715U 24196J   24361.13538779  .00000478  00000-0  21930-4 0  9999
2 61715  53.1646 340.3928 0001491 101.8513 258.2659 15.39620036  9898
Epoch: 2024-12-26T03:14Z
Definitive object data (Epoch: 2024-12-26T03:14:57.505Z)
Latitude-0.00001°
Longitude-163.46594°
Altitude448.343 km
Speed7.644 km/s
True Right ascension22h 41m 34s
True Declination0° 00' 00"
Sunlit
Object was in daylight at TLE epoch
Visualization TLE readout
Latitude-9.95642°
Longitude22.66071°
Altitude449.95 km
Speed7.643 km/s
Apparent Right ascension13h 44m 42s
Apparent Declination-61° 45' 01"
Sunlit
Object is in daylight
Visualization observer readout
Local Sidereal Time09:39:55
Azimuth153.225° SSE
Elevation-22.975°
Doppler factor1
Orbital elements
Apogee altitude448.506 km
Perigee altitude446.471 km
Semi-major axis6,825.626 km
Eccentricity0.0001491
Inclination53.1646°
RAAN340.3928°
Arg. of periapsis101.8513°
True anomaly258.24917°
Mean anomaly258.2659°
Eccentric anomaly258.25754°
Mean motion3.84884 °/min
BSTAR0.00002193
Orbital period93.53 mins
Loading maneuver chart data...
Loading historical data...
Loading historical data...
Loading historical data...
Loading historical data...
Loading historical data...
Loading historical data...
Loading historical data...

STARLINK-32459 Visibility forecast

Observer location: undefined°, undefined

Span
Click to sort rows by Start time (UTC) header in descending order
Start Az.
Max El. time (UTC)
Max El. Az.
Max El.
End time (UTC)
End Az.
6 mins2024-12-27 01:13:45.823Z214.292° SW2024-12-27 01:16:45.823Z134.05° SE40.291°2024-12-27 01:19:45.823Z58.4° ENE
4 mins2024-12-27 02:52:45.823Z299.4° NW2024-12-27 02:53:45.823Z321.157° NNW19.487°2024-12-27 02:56:45.823Z23.341° NE
4 mins2024-12-27 07:47:45.823Z337.432° NNW2024-12-27 07:48:45.823Z8.686° NNE34.389°2024-12-27 07:51:45.823Z105.704° ESE
|